DECMC EDDG-ZZZZ

Flight info

Callsign DECMC
Flight time N/A
Altitude
Route EDDG/07
Aircraft DA62

Departure

Time 2026-04-27 13:53
Airport Münster Osnabrück Airport (EDDG)

Arrival

Time N/A
Airport ZZZZ
Time Latitude Longitude Altitude Speed Heading
2026-04-27 13:46 52.13215 7.68827 162 ft 0 kts 162°
2026-04-27 13:49 52.13204 7.68854 162 ft 10 kts 82°
2026-04-27 13:50 52.13272 7.68891 160 ft 16 kts 335°
2026-04-27 13:50 52.13350 7.68784 161 ft 17 kts 254°
2026-04-27 13:50 52.13312 7.68593 164 ft 19 kts 249°
2026-04-27 13:50 52.13268 7.68367 163 ft 23 kts 251°
2026-04-27 13:51 52.13210 7.68107 163 ft 27 kts 253°
2026-04-27 13:51 52.13149 7.67803 159 ft 30 kts 248°
2026-04-27 13:51 52.13075 7.67471 157 ft 32 kts 250°
2026-04-27 13:51 52.13002 7.67203 159 ft 17 kts 221°
2026-04-27 13:52 52.13019 7.67095 160 ft 14 kts 348°
2026-04-27 13:52 52.13123 7.67042 159 ft 17 kts 346°
2026-04-27 13:52 52.13194 7.67187 157 ft 23 kts 72°
2026-04-27 13:52 52.13284 7.67623 158 ft 66 kts 68°
2026-04-27 13:53 52.13601 7.69431 534 ft 86 kts 76°
2026-04-27 13:53 52.13511 7.70391 824 ft 90 kts 109°
2026-04-27 13:53 52.13082 7.71090 1104 ft 92 kts 171°
2026-04-27 13:54 52.12385 7.70839 1224 ft 113 kts 193°
2026-04-27 13:54 52.11586 7.70546 1424 ft 118 kts 194°
2026-04-27 13:54 52.10791 7.70140 1482 ft 120 kts 201°
2026-04-27 13:54 52.09982 7.69708 1472 ft 128 kts 195°
2026-04-27 13:55 52.09110 7.69358 1470 ft 129 kts 189°
2026-04-27 13:55 52.08229 7.69099 1451 ft 130 kts 188°
2026-04-27 13:55 52.07334 7.68802 1432 ft 132 kts 192°
2026-04-27 13:55 52.06455 7.68508 1412 ft 129 kts 190°
2026-04-27 13:56 52.05592 7.68213 1517 ft 126 kts 194°
2026-04-27 13:56 52.04780 7.67680 1507 ft 127 kts 208°
2026-04-27 13:56 52.03990 7.66998 1511 ft 128 kts 206°
2026-04-27 13:56 52.03172 7.66505 1589 ft 123 kts 196°
2026-04-27 13:57 52.02378 7.66109 1665 ft 117 kts 197°
2026-04-27 13:57 52.01621 7.65739 1796 ft 112 kts 195°
2026-04-27 13:57 52.00871 7.65410 1909 ft 112 kts 193°
2026-04-27 13:57 52.00130 7.65164 2153 ft 104 kts 190°
2026-04-27 13:58 51.99423 7.64929 2353 ft 105 kts 188°
2026-04-27 13:58 51.98696 7.64760 2539 ft 109 kts 187°
2026-04-27 13:58 51.98194 7.64683 2693 ft 109 kts 182°
2026-04-27 13:58 51.97389 7.64531 2643 ft 127 kts 187°
2026-04-27 13:59 51.96492 7.64326 2511 ft 134 kts 185°
2026-04-27 13:59 51.95614 7.64130 2587 ft 121 kts 188°
2026-04-27 13:59 51.94772 7.63974 2592 ft 122 kts 185°
2026-04-27 13:59 51.93917 7.63821 2562 ft 125 kts 185°
2026-04-27 14:00 51.93070 7.63642 2562 ft 123 kts 185°
2026-04-27 14:00 51.92215 7.63466 2558 ft 125 kts 185°
2026-04-27 14:00 51.91359 7.63296 2567 ft 125 kts 184°
2026-04-27 14:00 51.90484 7.63106 2574 ft 129 kts 187°
2026-04-27 14:01 51.89606 7.62917 2565 ft 125 kts 185°
2026-04-27 14:01 51.88739 7.62741 2574 ft 126 kts 186°
2026-04-27 14:01 51.87856 7.62543 2578 ft 130 kts 186°
2026-04-27 14:01 51.86966 7.62381 2570 ft 126 kts 184°
2026-04-27 14:02 51.86110 7.62223 2574 ft 123 kts 185°
2026-04-27 14:02 51.85255 7.62060 2561 ft 122 kts 185°
2026-04-27 14:02 51.84435 7.61792 2565 ft 119 kts 193°
2026-04-27 14:02 51.83628 7.61456 2562 ft 121 kts 193°
2026-04-27 14:03 51.82822 7.61129 2585 ft 120 kts 194°
2026-04-27 14:03 51.82014 7.60792 2565 ft 120 kts 192°
2026-04-27 14:03 51.81210 7.60461 2566 ft 119 kts 192°
2026-04-27 14:03 51.80401 7.60143 2581 ft 122 kts 193°
2026-04-27 14:04 51.79567 7.59809 2562 ft 121 kts 192°
2026-04-27 14:04 51.78754 7.59482 2564 ft 121 kts 194°
2026-04-27 14:04 51.77952 7.59133 2562 ft 119 kts 193°
2026-04-27 14:04 51.77143 7.58774 2563 ft 124 kts 193°
2026-04-27 14:05 51.76312 7.58399 2558 ft 123 kts 192°
2026-04-27 14:05 51.75499 7.58043 2597 ft 119 kts 193°
2026-04-27 14:05 51.74725 7.57617 2670 ft 115 kts 200°